Location: Stuttgart
(48.8069°N, 9.1544°E)
Time: 03:21:57
(UTC+02:00)

ISS - Pass Details

Date: 15 May 2021
Orbit: 417 x 422 km, 51.6° (Epoch: 15 June)

Event Time Altitude Azimuth Distance (km) Brightness Sun altitude
Rises 00:24:25 0° 259° (W) 2,363 0.1 -21.2°
Reaches altitude 10° 00:26:32 10° 262° (W) 1,502 -0.9 -21.3°
Maximum altitude 00:29:53 66° 345° (NNW) 463 -3.4 -21.4°
Drops below altitude 10° 00:33:15 10° 69° (ENE) 1,509 -0.9 -21.5°
Sets 00:35:22 0° 72° (ENE) 2,375 0.2 -21.6°
